Regional Weather Roundup
Issued by NWS

Home | Current Version | Previous Version | Text Only | Print | Product List | Glossary On
Versions: 1 2 3 4 5 6 7 8 9 10 11 12 13 14 15 16 17 18 19 20 21 22 23 24 25 26 27 28 29 30 31 32 33 34 35 36 37 38 39 40 41 42 43 44 45 46 47 48 49 50
000
ASUS43 KOAX 021210
RWRNE

WEATHER ROUNDUP FOR NEBRASKA
NATIONAL WEATHER SERVICE OMAHA NE
700 AM CDT THU OCT 02 2014

NOTES: SATELLITE DATA IS BEING USED TO AUGMENT CLOUD COVER ABOVE
       12000 FEET.
       "FAIR" INDICATES FEW OR NO CLOUDS BELOW 12,000 FEET WITH NO
       SIGNIFICANT WEATHER AND/OR OBSTRUCTIONS TO VISIBILITY.

  * THESE STATIONS DO NOT REPORT WEATHER SUCH AS RAIN...SNOW OR FOG.

NEZ001>004-019>022-054>056-021300-
NEBRASKA PANHANDLE

CITY           SKY/WX    TMP DP  RH WIND       PRES   REMARKS
SCOTTSBLUFF    CLEAR     38  37  97 NW6       30.09R WCI  33
6HR MIN TEMP:  38; 6HR MAX TEMP:  43;

ALLIANCE       CLEAR     35  34  96 W8        30.05S WCI  29
6HR MIN TEMP:  35; 6HR MAX TEMP:  48; 6HR PCP:  0.01;

CHADRON        CLEAR     41  38  89 W8        30.05S
6HR MIN TEMP:  40; 6HR MAX TEMP:  48;

KIMBALL        CLEAR     38  36  95 NW5       30.08R WCI  34
SIDNEY         CLEAR     40  38  93 NW10      30.08R WCI  33
6HR MIN TEMP:  40; 6HR MAX TEMP:  45;

$$

NEZ057>060-069>072-079>082-021300-
SOUTHWEST NEBRASKA

CITY           SKY/WX    TMP DP  RH WIND       PRES   REMARKS
NORTH PLATTE   CLOUDY    50  47  89 NW9       29.99R
6HR MIN TEMP:  50; 6HR MAX TEMP:  52; 6HR PCP:  0.09;

IMPERIAL       PTCLDY    47  44  90 NW14      30.03R
6HR MIN TEMP:  47; 6HR MAX TEMP:  51; 6HR PCP:  0.05;

LEXINGTON      CLOUDY    52  50  93 NW7       29.95R
MCCOOK         CLOUDY    51  48  89 NW9       29.98R
6HR MIN TEMP:  51; 6HR MAX TEMP:  55; 6HR PCP:  0.01;

OGALLALA       CLEAR     47  45  95 NW7       30.04S
$$

NEZ005>010-023>029-035>040-094-021300-
NORTH CENTRAL NEBRASKA

CITY           SKY/WX    TMP DP  RH WIND       PRES   REMARKS
VALENTINE      MOCLDY    46  44  93 W3        29.98R
6HR MIN TEMP:  46; 6HR MAX TEMP:  51; 6HR PCP:  0.04;

AINSWORTH      CLOUDY    49  48  96 NW5       29.97S
BROKEN BOW     CLOUDY    52  49  89 N13       29.93S
6HR MIN TEMP:  52; 6HR MAX TEMP:  53;

O`NEILL        LGT RAIN  52  52  99 N8        29.93F
ORD            CLOUDY    51  49  92 N12       29.89F
6HR MIN TEMP:  51; 6HR MAX TEMP:  57; 6HR PCP:  0.66;

THEDFORD       PTCLDY    48  46  95 NW8       29.99S
$$

NEZ041-046>049-061>064-073>077-083>087-021300-
SOUTH CENTRAL NEBRASKA

CITY           SKY/WX    TMP DP  RH WIND       PRES   REMARKS
GRAND ISLAND   LGT RAIN  53  51  93 N12       29.88R
6HR MIN TEMP:  53; 6HR MAX TEMP:  61; 6HR PCP:  0.39;

AURORA         RAIN      54  52  94 N15G21    29.85F
HASTINGS       LGT RAIN  53  50  89 N17       29.87F
6HR MIN TEMP:  53; 6HR MAX TEMP:  60; 6HR PCP:  0.13;

HEBRON         CLOUDY    57  54  90 N18G29    29.82R
HOLDREGE       LGT RAIN  52  49  91 N3        29.93R
KEARNEY *      CLOUDY    52  48  87 NW16      29.90R
YORK           CLOUDY    54  52  94 N13G23    29.86R
$$

NEZ011>018-030>034-042>045-021300-
NORTHEAST NEBRASKA

CITY           SKY/WX    TMP DP  RH WIND       PRES   REMARKS
NORFOLK        CLOUDY    54  52  93 N13       29.88R
6HR MIN TEMP:  53; 6HR MAX TEMP:  60; 6HR PCP:  0.28;

ALBION         LGT RAIN  52  50  93 N13       29.89S
BLAIR          CLOUDY    58  57  95 N15G21    29.79F
COLUMBUS *     CLOUDY    54  48  82 N14G22    29.87R
FREMONT        CLOUDY    58  54  87 N9G16     29.80F
TEKAMAH        CLOUDY    58  54  86 N17G24    29.81F
6HR MIN TEMP:  58; 6HR MAX TEMP:  64; 6HR PCP:  0.02;

WAYNE          MOCLDY    54  52  92 N15G22    29.87R
$$

NEZ050>053-065>068-078-088>093-021300-
SOUTHEAST NEBRASKA

CITY           SKY/WX    TMP DP  RH WIND       PRES   REMARKS
LINCOLN        MOCLDY    57  54  89 N12       29.80R
6HR MIN TEMP:  57; 6HR MAX TEMP:  65; 6HR PCP:  0.06;

OMAHA EPPLEY   CLOUDY    64  63  96 N15G23    29.79F FOG
6HR MIN TEMP:  60; 6HR MAX TEMP:  64; 6HR PCP:  0.01;

BEATRICE       CLOUDY    60  58  94 N8        29.78R
FALLS CITY     CLOUDY    65  64  97 N8        29.76R FOG
6HR MIN TEMP:  64; 6HR MAX TEMP:  65;

NEBRASKA CITY  TSTM      64  64 100 N10       29.78F
PLATTSMOUTH      N/A     64  63  96 NE9       29.77F VSB 1
$$

NEZ044-045-051>053-067-021300-
OMAHA AREA

CITY           SKY/WX    TMP DP  RH WIND       PRES   REMARKS
OMAHA EPPLEY   CLOUDY    64  63  96 N15G23    29.79F FOG
6HR MIN TEMP:  60; 6HR MAX TEMP:  64; 6HR PCP:  0.01;

BLAIR          CLOUDY    58  57  95 N15G21    29.79F
FREMONT        CLOUDY    58  54  87 N9G16     29.80F
MILLARD        LGT RAIN  60  58  92 N9        29.78F
OFFUTT AFB     DRIZZLE   64  64 100 E10       29.75F FOG
PLATTSMOUTH      N/A     64  63  96 NE9       29.77F VSB 1
WAHOO          FAIR      57  53  88 N10G16    29.79R
$$


USA.gov is the U.S. government's official web portal to all federal, state and local government web resources and services.